カタログに戻る

DELTA 1 DEB

運用中SSO
NORAD 7138·DEBRIS·🇺🇸 United States

打ち上げ Nov 6, 1973 から Vandenberg Space Force Base

Loading…

次のパス (今後24時間)

TLE

最新Source: Space-Track

元期: Sep 14, 2026, 14:35 UTC

1 07138U 73086DC  26257.60782166 -.00000029  00000-0  12226-3 0  9999
2 07138 102.0772 199.0860 0053414 148.9389  23.6940 12.31900254376874

AllMySatでDELTA 1 DEBをリアルタイム追跡

Download on the App Store